Change the Weather History Date:

Monday, October 7, 2013

  Actual Average Record
Temperature  
Mean Temperature 55 °F 48 °F  
Max Temperature 71 °F 60 °F 73 °F (1996)
Min Temperature 38 °F 35 °F 20 °F (2012)
Degree Days  
Heating Degree Days 10 18  
Month to date heating degree days 142 115  
Since 1 July heating degree days 421 512  
Cooling Degree Days 0 0  
Month to date cooling degree days 0 0  
Year to date cooling degree days 348 162  
Growing Degree Days 4 (Base 50)    
Moisture  
Dew Point 21 °F    
Average Humidity 32    
Maximum Humidity 49    
Minimum Humidity 15    
Precipitation  
Precipitation 0.00 in 0.03 in 0.23 in (2010)
Month to date precipitation 0.12 0.20  
Year to date precipitation 4.18 9.54  
Sea Level Pressure  
Sea Level Pressure 29.99 in    
Wind  
Wind Speed 11 mph (SSW)    
Max Wind Speed 24 mph    
Max Gust Speed 35 mph    
Visibility 10 miles    
Events      
T = Trace of Precipitation, MM = Missing Value Source: NWS Daily Summary

Daily Weather History Graph

Daily Weather History Graph

Search for Another Location

Airport or City:

Trip Planner

Search our weather history database for the weather conditions in past years. The results will help you decide how hot, cold, wet, or windy it might be!

Date:

Astronomy

Oct. 07, 2013 Rise Set
Actual Time 7:27 AM MDT 6:55 PM MDT
Civil Twilight 6:59 AM MDT 7:23 PM MDT
Nautical Twilight 6:27 AM MDT 7:54 PM MDT
Astronomical Twilight 5:55 AM MDT 8:27 PM MDT
Moon 10:23 AM MDT (10/7) 8:41 PM MDT (10/7)
Length of Visible Light 12h 23m
Length of Day
11h 28m
Waxing Crescent, 9% of the Moon is Illuminated
Oct 7
Waxing Crescent
Oct 11
First Quarter
Oct 18
Full
Oct 26
Last Quarter
Nov 3
New

Hourly Weather History & Observations

Time (MDT) Temp. Windchill Dew Point Humidity Pressure Visibility Wind Dir Wind Speed Gust Speed Precip Events Conditions
12:53 AM 44.1 °F 40.1 °F 26.1 °F 49% 30.14 in 10.0 mi South 6.9 mph - N/A   Clear
1:53 AM 43.0 °F 38.8 °F 24.1 °F 47% 30.13 in 10.0 mi South 6.9 mph - N/A   Clear
2:53 AM 39.9 °F 34.5 °F 21.9 °F 49% 30.12 in 10.0 mi SSE 8.1 mph - N/A   Clear
3:53 AM 39.9 °F 34.5 °F 19.9 °F 45% 30.09 in 10.0 mi SSE 8.1 mph - N/A   Clear
4:53 AM 39.9 °F 35.1 °F 19.9 °F 45% 30.08 in 10.0 mi SSE 6.9 mph - N/A   Clear
5:53 AM 39.9 °F 35.8 °F 18.0 °F 41% 30.08 in 10.0 mi South 5.8 mph - N/A   Clear
6:53 AM 39.0 °F 34.0 °F 19.0 °F 45% 30.11 in 10.0 mi SSW 6.9 mph - N/A   Clear
7:53 AM 41.0 °F 35.8 °F 21.0 °F 45% 30.11 in 10.0 mi South 8.1 mph - N/A   Clear
8:53 AM 45.0 °F 41.2 °F 24.1 °F 44% 30.10 in 10.0 mi South 6.9 mph - N/A   Clear
9:53 AM 51.1 °F - 24.1 °F 35% 30.07 in 10.0 mi SW 4.6 mph - N/A   Clear
10:53 AM 55.9 °F - 23.0 °F 28% 30.04 in 10.0 mi SSW 10.4 mph - N/A   Clear
11:53 AM 63.0 °F - 23.0 °F 22% 29.99 in 10.0 mi SW 12.7 mph - N/A   Clear
12:53 PM 68.0 °F - 21.9 °F 17% 29.95 in 10.0 mi SW 19.6 mph 24.2 mph N/A   Clear
1:53 PM 70.0 °F - 19.0 °F 14% 29.91 in 10.0 mi WSW 24.2 mph 27.6 mph N/A   Clear
2:53 PM 69.1 °F - 21.0 °F 16% 29.90 in 10.0 mi SW 19.6 mph - N/A   Clear
3:53 PM 69.1 °F - 21.0 °F 16% 29.87 in 10.0 mi SW 16.1 mph 23.0 mph N/A   Clear
4:53 PM 66.9 °F - 21.0 °F 17% 29.87 in 10.0 mi WSW 18.4 mph - N/A   Clear
5:53 PM 63.0 °F - 17.1 °F 17% 29.89 in 10.0 mi WSW 15.0 mph - N/A   Clear
6:53 PM 57.9 °F - 17.1 °F 20% 29.90 in 10.0 mi WSW 11.5 mph - N/A   Clear
7:53 PM 55.0 °F - 18.0 °F 23% 29.91 in 10.0 mi WSW 9.2 mph - N/A   Clear
8:53 PM 53.1 °F - 19.0 °F 26% 29.90 in 10.0 mi SSW 5.8 mph - N/A   Clear
9:53 PM 51.1 °F - 18.0 °F 27% 29.87 in 10.0 mi SSW 6.9 mph - N/A   Clear
10:53 PM 51.1 °F - 19.9 °F 29% 29.83 in 10.0 mi SSW 6.9 mph - N/A   Clear
11:53 PM 50.0 °F - 19.9 °F 31% 29.79 in 10.0 mi South 8.1 mph - N/A   Clear